Time,TemperatureF,DewpointF,PressureIn,WindDirection,WindDirectionDegrees,WindSpeedMPH,WindSpeedGustMPH,Humidity,HourlyPrecipIn,Conditions,Clouds,dailyrainin,SoftwareType,DateUTC
2013-01-16 00:03:00,28.9,28.2,30.61,NE,45,0.0,0.0,97,0.00,,,0.00,WUHU21623XXSP,2013-01-16 08:03:00,
2013-01-16 00:08:00,28.9,28.2,30.61,NE,45,0.0,0.0,97,0.00,,,0.00,WUHU21623XXSP,2013-01-16 08:08:00,
2013-01-16 00:13:00,28.9,28.2,30.61,NE,45,0.0,0.0,97,0.00,,,0.00,WUHU21623XXSP,2013-01-16 08:13:00,
2013-01-16 00:18:00,28.9,28.2,30.61,NE,45,0.0,0.0,97,0.00,,,0.00,WUHU21623XXSP,2013-01-16 08:18:00,
2013-01-16 00:23:00,28.8,28.0,30.61,NE,45,0.0,0.0,97,0.00,,,0.00,WUHU21623XXSP,2013-01-16 08:23:00,
2013-01-16 00:28:00,28.8,28.0,30.61,NE,45,0.0,0.0,97,0.00,,,0.00,WUHU21623XXSP,2013-01-16 08:28:00,
2013-01-16 00:33:00,28.6,27.8,30.61,NE,45,0.0,0.0,97,0.00,,,0.00,WUHU21623XXSP,2013-01-16 08:33:00,
2013-01-16 00:38:00,28.6,27.8,30.61,NE,45,0.0,0.0,97,0.00,,,0.00,WUHU21623XXSP,2013-01-16 08:38:00,
2013-01-16 00:43:00,28.6,27.8,30.62,NE,45,0.0,0.0,97,0.00,,,0.00,WUHU21623XXSP,2013-01-16 08:43:00,
2013-01-16 00:48:00,28.2,27.5,30.62,NE,45,0.0,0.0,97,0.00,,,0.00,WUHU21623XXSP,2013-01-16 08:48:00,
2013-01-16 00:53:00,28.2,27.5,30.62,NE,45,0.0,0.0,97,0.00,,,0.00,WUHU21623XXSP,2013-01-16 08:53:00,
2013-01-16 00:58:00,28.2,27.5,30.62,NE,45,0.0,0.0,97,0.00,,,0.00,WUHU21623XXSP,2013-01-16 08:58:00,
2013-01-16 01:03:00,28.2,27.5,30.61,NE,45,0.0,0.0,97,0.00,,,0.00,WUHU21623XXSP,2013-01-16 09:03:00,
2013-01-16 01:08:00,28.2,27.5,30.61,NE,45,0.0,0.0,97,0.00,,,0.00,WUHU21623XXSP,2013-01-16 09:08:00,
2013-01-16 01:13:00,28.2,27.5,30.61,NE,45,0.0,0.0,97,0.00,,,0.00,WUHU21623XXSP,2013-01-16 09:13:00,
2013-01-16 01:18:00,28.2,27.5,30.61,NE,45,0.0,0.0,97,0.00,,,0.00,WUHU21623XXSP,2013-01-16 09:18:00,
2013-01-16 01:23:00,28.2,27.5,30.61,NE,45,0.0,0.0,97,0.00,,,0.00,WUHU21623XXSP,2013-01-16 09:23:00,
2013-01-16 01:28:00,28.2,27.5,30.60,NE,45,0.0,0.0,97,0.00,,,0.00,WUHU21623XXSP,2013-01-16 09:28:00,
2013-01-16 01:33:00,28.2,27.5,30.61,NE,45,0.0,0.0,97,0.00,,,0.00,WUHU21623XXSP,2013-01-16 09:33:00,
2013-01-16 01:38:00,28.0,27.3,30.61,NE,45,0.0,0.0,97,0.00,,,0.00,WUHU21623XXSP,2013-01-16 09:38:00,
2013-01-16 01:43:00,28.0,27.3,30.61,NE,45,0.0,0.0,97,0.00,,,0.00,WUHU21623XXSP,2013-01-16 09:43:00,
2013-01-16 01:48:00,28.0,27.3,30.61,NE,45,0.0,0.0,97,0.00,,,0.00,WUHU21623XXSP,2013-01-16 09:48:00,
2013-01-16 01:53:00,28.0,27.3,30.61,NE,45,0.0,0.0,97,0.00,,,0.00,WUHU21623XXSP,2013-01-16 09:53:00,
2013-01-16 01:58:00,27.9,27.1,30.61,NE,45,0.0,0.0,97,0.00,,,0.00,WUHU21623XXSP,2013-01-16 09:58:00,
2013-01-16 02:03:00,28.0,27.3,30.61,NE,45,0.0,0.0,97,0.00,,,0.00,WUHU21623XXSP,2013-01-16 10:03:00,
2013-01-16 02:08:00,27.7,26.9,30.62,NE,45,0.0,0.0,97,0.00,,,0.00,WUHU21623XXSP,2013-01-16 10:08:00,
2013-01-16 02:13:00,27.7,26.9,30.62,NE,45,0.0,0.0,97,0.00,,,0.00,WUHU21623XXSP,2013-01-16 10:13:00,
2013-01-16 02:18:00,27.7,26.9,30.62,NE,45,0.0,0.0,97,0.00,,,0.00,WUHU21623XXSP,2013-01-16 10:18:00,
2013-01-16 02:23:00,27.5,26.7,30.62,NE,45,0.0,0.0,97,0.00,,,0.00,WUHU21623XXSP,2013-01-16 10:23:00,
2013-01-16 02:28:00,27.5,26.7,30.62,NE,45,0.0,0.0,97,0.00,,,0.00,WUHU21623XXSP,2013-01-16 10:28:00,
2013-01-16 02:33:00,27.5,26.7,30.62,NE,45,0.0,0.0,97,0.00,,,0.00,WUHU21623XXSP,2013-01-16 10:33:00,
2013-01-16 02:38:00,27.3,26.6,30.62,NE,45,0.0,0.0,97,0.00,,,0.00,WUHU21623XXSP,2013-01-16 10:38:00,
2013-01-16 02:43:00,27.3,26.6,30.62,NE,45,0.0,0.0,97,0.00,,,0.00,WUHU21623XXSP,2013-01-16 10:43:00,
2013-01-16 02:48:00,27.3,26.6,30.62,NE,45,0.0,0.0,97,0.00,,,0.00,WUHU21623XXSP,2013-01-16 10:48:00,
2013-01-16 02:53:00,27.3,26.6,30.62,NE,45,0.0,0.0,97,0.00,,,0.00,WUHU21623XXSP,2013-01-16 10:53:00,
2013-01-16 02:58:00,27.3,26.6,30.62,NE,45,0.0,0.0,97,0.00,,,0.00,WUHU21623XXSP,2013-01-16 10:58:00,
2013-01-16 03:03:00,27.3,26.6,30.62,NE,45,0.0,0.0,97,0.00,,,0.00,WUHU21623XXSP,2013-01-16 11:03:00,
2013-01-16 03:08:00,27.1,26.4,30.62,NE,45,0.0,0.0,97,0.00,,,0.00,WUHU21623XXSP,2013-01-16 11:08:00,
2013-01-16 03:13:00,27.1,26.4,30.62,NE,45,0.0,0.0,97,0.00,,,0.00,WUHU21623XXSP,2013-01-16 11:13:00,
2013-01-16 03:19:00,27.0,26.2,30.62,NE,45,0.0,0.0,97,0.00,,,0.00,WUHU21623XXSP,2013-01-16 11:19:00,
2013-01-16 03:24:00,27.0,26.2,30.62,NE,45,0.0,0.0,97,0.00,,,0.00,WUHU21623XXSP,2013-01-16 11:24:00,
2013-01-16 03:29:00,27.0,26.2,30.62,NE,45,0.0,0.0,97,0.00,,,0.00,WUHU21623XXSP,2013-01-16 11:29:00,
2013-01-16 03:34:00,27.0,26.2,30.62,NE,45,0.0,0.0,97,0.00,,,0.00,WUHU21623XXSP,2013-01-16 11:34:00,
2013-01-16 03:39:00,26.8,26.0,30.62,NE,45,0.0,0.0,97,0.00,,,0.00,WUHU21623XXSP,2013-01-16 11:39:00,
2013-01-16 03:44:00,27.0,26.2,30.61,NE,45,0.0,0.0,97,0.00,,,0.00,WUHU21623XXSP,2013-01-16 11:44:00,
2013-01-16 03:49:00,27.0,26.2,30.61,NE,45,0.0,0.0,97,0.00,,,0.00,WUHU21623XXSP,2013-01-16 11:49:00,
2013-01-16 03:54:00,27.0,26.2,30.61,NE,45,0.0,0.0,97,0.00,,,0.00,WUHU21623XXSP,2013-01-16 11:54:00,
2013-01-16 03:59:00,27.0,26.2,30.61,NE,45,0.0,0.0,97,0.00,,,0.00,WUHU21623XXSP,2013-01-16 11:59:00,
2013-01-16 04:04:00,27.0,26.2,30.61,NE,45,0.0,0.0,97,0.00,,,0.00,WUHU21623XXSP,2013-01-16 12:04:00,
2013-01-16 04:09:00,27.0,26.2,30.61,NE,45,0.0,0.0,97,0.00,,,0.00,WUHU21623XXSP,2013-01-16 12:09:00,
2013-01-16 04:14:00,27.0,26.2,30.61,NE,45,0.0,0.0,97,0.00,,,0.00,WUHU21623XXSP,2013-01-16 12:14:00,
2013-01-16 04:19:00,27.0,26.2,30.61,NE,45,0.0,0.0,97,0.00,,,0.00,WUHU21623XXSP,2013-01-16 12:19:00,
2013-01-16 04:24:00,26.8,26.0,30.60,NE,45,0.0,0.0,97,0.00,,,0.00,WUHU21623XXSP,2013-01-16 12:24:00,
2013-01-16 04:29:00,26.8,26.0,30.60,NE,45,0.0,0.0,97,0.00,,,0.00,WUHU21623XXSP,2013-01-16 12:29:00,
2013-01-16 04:34:00,26.8,26.0,30.60,NE,45,0.0,0.0,97,0.00,,,0.00,WUHU21623XXSP,2013-01-16 12:34:00,
2013-01-16 04:39:00,26.8,26.0,30.60,NE,45,0.0,0.0,97,0.00,,,0.00,WUHU21623XXSP,2013-01-16 12:39:00,
2013-01-16 04:44:00,26.8,26.0,30.60,NE,45,0.0,0.0,97,0.00,,,0.00,WUHU21623XXSP,2013-01-16 12:44:00,
2013-01-16 04:49:00,26.8,26.0,30.60,NE,45,0.0,0.0,97,0.00,,,0.00,WUHU21623XXSP,2013-01-16 12:49:00,
2013-01-16 04:54:00,26.6,25.8,30.59,NE,45,0.0,0.0,97,0.00,,,0.00,WUHU21623XXSP,2013-01-16 12:54:00,
2013-01-16 04:59:00,26.6,25.8,30.59,NE,45,0.0,0.0,97,0.00,,,0.00,WUHU21623XXSP,2013-01-16 12:59:00,
2013-01-16 05:04:00,26.4,25.7,30.59,NE,45,0.0,0.0,97,0.00,,,0.00,WUHU21623XXSP,2013-01-16 13:04:00,
2013-01-16 05:09:00,26.4,25.7,30.59,NE,45,0.0,0.0,97,0.00,,,0.00,WUHU21623XXSP,2013-01-16 13:09:00,
2013-01-16 05:14:00,26.4,25.7,30.59,NE,45,0.0,0.0,97,0.00,,,0.00,WUHU21623XXSP,2013-01-16 13:14:00,
2013-01-16 05:19:00,26.6,25.8,30.59,NE,45,0.0,0.0,97,0.00,,,0.00,WUHU21623XXSP,2013-01-16 13:19:00,
2013-01-16 05:24:00,26.6,25.8,30.59,NE,45,0.0,0.0,97,0.00,,,0.00,WUHU21623XXSP,2013-01-16 13:24:00,
2013-01-16 05:29:00,26.4,25.7,30.59,NE,45,0.0,0.0,97,0.00,,,0.00,WUHU21623XXSP,2013-01-16 13:29:00,
2013-01-16 05:34:00,26.2,25.5,30.58,NE,45,0.0,0.0,97,0.00,,,0.00,WUHU21623XXSP,2013-01-16 13:34:00,
2013-01-16 05:39:00,26.1,25.3,30.59,NE,45,0.0,0.0,97,0.00,,,0.00,WUHU21623XXSP,2013-01-16 13:39:00,
2013-01-16 05:44:00,25.9,25.1,30.58,NE,45,0.0,0.0,97,0.00,,,0.00,WUHU21623XXSP,2013-01-16 13:44:00,
2013-01-16 05:49:00,25.9,25.1,30.58,NE,45,0.0,0.0,97,0.00,,,0.00,WUHU21623XXSP,2013-01-16 13:49:00,
2013-01-16 05:54:00,25.9,25.1,30.58,NE,45,0.0,0.0,97,0.00,,,0.00,WUHU21623XXSP,2013-01-16 13:54:00,
2013-01-16 05:59:00,25.9,25.1,30.58,NE,45,0.0,0.0,97,0.00,,,0.00,WUHU21623XXSP,2013-01-16 13:59:00,
2013-01-16 06:04:00,25.9,25.1,30.58,NE,45,0.0,0.0,97,0.00,,,0.00,WUHU21623XXSP,2013-01-16 14:04:00,
2013-01-16 06:09:00,25.9,25.1,30.58,NE,45,0.0,0.0,97,0.00,,,0.00,WUHU21623XXSP,2013-01-16 14:09:00,
2013-01-16 06:14:00,25.7,24.9,30.58,NE,45,0.0,0.0,97,0.00,,,0.00,WUHU21623XXSP,2013-01-16 14:14:00,
2013-01-16 06:19:00,25.7,24.9,30.58,NE,45,0.0,0.0,97,0.00,,,0.00,WUHU21623XXSP,2013-01-16 14:19:00,
2013-01-16 06:24:00,25.5,24.8,30.58,NE,45,0.0,0.0,97,0.00,,,0.00,WUHU21623XXSP,2013-01-16 14:24:00,
2013-01-16 06:29:00,25.5,24.8,30.58,NE,45,0.0,0.0,97,0.00,,,0.00,WUHU21623XXSP,2013-01-16 14:29:00,
2013-01-16 06:34:00,25.7,24.9,30.58,NE,45,0.0,0.0,97,0.00,,,0.00,WUHU21623XXSP,2013-01-16 14:34:00,
2013-01-16 06:39:00,25.7,24.9,30.57,NE,45,0.0,0.0,97,0.00,,,0.00,WUHU21623XXSP,2013-01-16 14:39:00,
2013-01-16 06:44:00,25.7,24.9,30.58,NE,45,0.0,0.0,97,0.00,,,0.00,WUHU21623XXSP,2013-01-16 14:44:00,
2013-01-16 06:49:00,25.5,24.8,30.57,NE,45,0.0,0.0,97,0.00,,,0.00,WUHU21623XXSP,2013-01-16 14:49:00,
2013-01-16 06:54:00,25.5,24.8,30.57,NE,45,0.0,0.0,97,0.00,,,0.00,WUHU21623XXSP,2013-01-16 14:54:00,
2013-01-16 06:59:00,25.5,24.8,30.57,NE,45,0.0,0.0,97,0.00,,,0.00,WUHU21623XXSP,2013-01-16 14:59:00,
2013-01-16 07:04:00,25.5,24.8,30.57,NE,45,0.0,0.0,97,0.00,,,0.00,WUHU21623XXSP,2013-01-16 15:04:00,
2013-01-16 07:09:00,25.3,24.6,30.56,NE,45,0.0,0.0,97,0.00,,,0.00,WUHU21623XXSP,2013-01-16 15:09:00,
2013-01-16 07:14:00,25.3,24.6,30.56,NE,45,0.0,0.0,97,0.00,,,0.00,WUHU21623XXSP,2013-01-16 15:14:00,
2013-01-16 07:19:00,25.3,24.6,30.56,NE,45,0.0,0.0,97,0.00,,,0.00,WUHU21623XXSP,2013-01-16 15:19:00,
2013-01-16 07:24:00,25.3,24.6,30.56,NE,45,0.0,0.0,97,0.00,,,0.00,WUHU21623XXSP,2013-01-16 15:24:00,
2013-01-16 07:29:00,25.3,24.6,30.56,NE,45,0.0,0.0,97,0.00,,,0.00,WUHU21623XXSP,2013-01-16 15:29:00,
2013-01-16 07:34:00,25.3,24.6,30.56,NE,45,0.0,0.0,97,0.00,,,0.00,WUHU21623XXSP,2013-01-16 15:34:00,
2013-01-16 07:39:00,25.3,24.6,30.56,NE,45,0.0,0.0,97,0.00,,,0.00,WUHU21623XXSP,2013-01-16 15:39:00,
2013-01-16 07:44:00,25.3,24.6,30.56,NE,45,0.0,0.0,97,0.00,,,0.00,WUHU21623XXSP,2013-01-16 15:44:00,
2013-01-16 07:49:00,25.5,24.8,30.56,NE,45,0.0,0.0,97,0.00,,,0.00,WUHU21623XXSP,2013-01-16 15:49:00,
2013-01-16 07:54:00,25.5,24.8,30.56,NE,45,0.0,0.0,97,0.00,,,0.00,WUHU21623XXSP,2013-01-16 15:54:00,
2013-01-16 07:59:00,25.5,24.8,30.56,NE,45,0.0,0.0,97,0.00,,,0.00,WUHU21623XXSP,2013-01-16 15:59:00,
2013-01-16 08:04:00,25.3,24.6,30.57,NE,45,0.0,0.0,97,0.00,,,0.00,WUHU21623XXSP,2013-01-16 16:04:00,
2013-01-16 08:09:00,25.3,24.6,30.57,NE,45,0.0,0.0,97,0.00,,,0.00,WUHU21623XXSP,2013-01-16 16:09:00,
2013-01-16 08:14:00,25.2,24.4,30.57,NE,45,0.0,0.0,97,0.00,,,0.00,WUHU21623XXSP,2013-01-16 16:14:00,
2013-01-16 08:19:00,25.2,24.4,30.58,NE,45,0.0,0.0,97,0.00,,,0.00,WUHU21623XXSP,2013-01-16 16:19:00,
2013-01-16 08:24:00,25.2,24.4,30.58,NE,45,0.0,0.0,97,0.00,,,0.00,WUHU21623XXSP,2013-01-16 16:24:00,
2013-01-16 08:29:00,25.0,24.4,30.58,NE,45,0.0,0.0,97,0.00,,,0.00,WUHU21623XXSP,2013-01-16 16:29:00,
2013-01-16 08:34:00,25.2,24.4,30.58,NE,45,0.0,0.0,97,0.00,,,0.00,WUHU21623XXSP,2013-01-16 16:34:00,
2013-01-16 08:39:00,25.2,24.4,30.58,NE,45,0.0,0.0,97,0.00,,,0.00,WUHU21623XXSP,2013-01-16 16:39:00,
2013-01-16 08:44:00,25.2,24.4,30.58,NE,45,0.0,0.0,97,0.00,,,0.00,WUHU21623XXSP,2013-01-16 16:44:00,
2013-01-16 08:49:00,25.2,24.4,30.58,NE,45,0.0,0.0,97,0.00,,,0.00,WUHU21623XXSP,2013-01-16 16:49:00,
2013-01-16 08:54:00,25.2,24.4,30.57,NE,45,0.0,0.0,97,0.00,,,0.00,WUHU21623XXSP,2013-01-16 16:54:00,
2013-01-16 08:59:00,25.2,24.4,30.57,NE,45,0.0,0.0,97,0.00,,,0.00,WUHU21623XXSP,2013-01-16 16:59:00,
2013-01-16 09:04:00,25.3,24.6,30.57,NE,45,0.0,0.0,97,0.00,,,0.00,WUHU21623XXSP,2013-01-16 17:04:00,
2013-01-16 09:09:00,25.5,24.8,30.57,NE,45,0.0,0.0,97,0.00,,,0.00,WUHU21623XXSP,2013-01-16 17:09:00,
2013-01-16 09:14:00,25.5,24.8,30.57,NE,45,0.0,0.0,97,0.00,,,0.00,WUHU21623XXSP,2013-01-16 17:14:00,
2013-01-16 09:19:00,25.7,24.9,30.57,NE,45,0.0,0.0,97,0.00,,,0.00,WUHU21623XXSP,2013-01-16 17:19:00,
2013-01-16 09:24:00,25.7,24.9,30.57,NE,45,0.0,0.0,97,0.00,,,0.00,WUHU21623XXSP,2013-01-16 17:24:00,
2013-01-16 09:29:00,25.9,25.1,30.57,NE,45,0.0,0.0,97,0.00,,,0.00,WUHU21623XXSP,2013-01-16 17:29:00,
2013-01-16 09:34:00,26.1,25.3,30.57,NE,45,0.0,0.0,97,0.00,,,0.00,WUHU21623XXSP,2013-01-16 17:34:00,
2013-01-16 09:39:00,26.2,25.5,30.57,NE,45,0.0,0.0,97,0.00,,,0.00,WUHU21623XXSP,2013-01-16 17:39:00,
2013-01-16 09:44:00,26.4,25.7,30.57,NE,45,0.0,0.0,97,0.00,,,0.00,WUHU21623XXSP,2013-01-16 17:44:00,
2013-01-16 09:49:00,26.4,25.7,30.57,NE,45,0.0,0.0,97,0.00,,,0.00,WUHU21623XXSP,2013-01-16 17:49:00,
2013-01-16 09:54:00,26.6,25.8,30.57,NE,45,0.0,0.0,97,0.00,,,0.00,WUHU21623XXSP,2013-01-16 17:54:00,
2013-01-16 09:59:00,26.8,25.8,30.56,NE,45,0.0,0.0,97,0.00,,,0.00,WUHU21623XXSP,2013-01-16 17:59:00,
2013-01-16 10:04:00,26.8,26.0,30.56,NE,45,0.0,0.0,97,0.00,,,0.00,WUHU21623XXSP,2013-01-16 18:04:00,
2013-01-16 10:09:00,27.1,26.4,30.56,NE,45,0.0,0.0,97,0.00,,,0.00,WUHU21623XXSP,2013-01-16 18:09:00,
2013-01-16 10:14:00,27.3,26.4,30.56,NE,45,0.0,0.0,97,0.00,,,0.00,WUHU21623XXSP,2013-01-16 18:14:00,
2013-01-16 10:19:00,27.3,26.6,30.56,NE,45,0.0,0.0,97,0.00,,,0.00,WUHU21623XXSP,2013-01-16 18:19:00,
2013-01-16 10:24:00,27.7,26.9,30.56,NE,45,0.0,0.0,97,0.00,,,0.00,WUHU21623XXSP,2013-01-16 18:24:00,
2013-01-16 10:29:00,28.0,27.3,30.56,NE,45,0.0,0.0,97,0.00,,,0.00,WUHU21623XXSP,2013-01-16 18:29:00,
2013-01-16 10:34:00,28.0,27.3,30.56,NE,45,0.0,0.0,97,0.00,,,0.00,WUHU21623XXSP,2013-01-16 18:34:00,
2013-01-16 10:39:00,28.2,27.5,30.56,NE,45,0.0,0.0,97,0.00,,,0.00,WUHU21623XXSP,2013-01-16 18:39:00,
2013-01-16 10:44:00,28.2,27.5,30.56,NE,45,0.0,0.0,97,0.00,,,0.00,WUHU21623XXSP,2013-01-16 18:44:00,
2013-01-16 10:49:00,28.6,27.8,30.56,NE,45,0.0,0.0,97,0.00,,,0.00,WUHU21623XXSP,2013-01-16 18:49:00,
2013-01-16 10:54:00,28.8,28.0,30.56,NE,45,0.0,0.0,97,0.00,,,0.00,WUHU21623XXSP,2013-01-16 18:54:00,
2013-01-16 10:59:00,28.9,28.2,30.56,NE,45,0.0,0.0,97,0.00,,,0.00,WUHU21623XXSP,2013-01-16 18:59:00,
2013-01-16 11:04:00,29.1,28.4,30.56,NE,45,0.0,0.0,97,0.00,,,0.00,WUHU21623XXSP,2013-01-16 19:04:00,
2013-01-16 11:09:00,29.3,28.4,30.55,NE,45,0.0,0.0,97,0.00,,,0.00,WUHU21623XXSP,2013-01-16 19:09:00,
2013-01-16 11:14:00,29.5,28.7,30.55,NE,45,0.0,0.0,97,0.00,,,0.00,WUHU21623XXSP,2013-01-16 19:14:00,
2013-01-16 11:19:00,29.8,29.3,30.55,NE,45,0.0,0.0,98,0.00,,,0.00,WUHU21623XXSP,2013-01-16 19:19:00,
2013-01-16 11:24:00,30.0,29.5,30.55,NE,45,0.0,0.0,98,0.00,,,0.00,WUHU21623XXSP,2013-01-16 19:24:00,
2013-01-16 11:29:00,30.4,29.9,30.55,NE,45,0.0,0.0,98,0.00,,,0.00,WUHU21623XXSP,2013-01-16 19:29:00,
2013-01-16 11:34:00,30.6,29.9,30.55,NE,45,0.0,0.0,98,0.00,,,0.00,WUHU21623XXSP,2013-01-16 19:34:00,
2013-01-16 11:39:00,30.7,30.2,30.55,NE,45,0.0,0.0,98,0.00,,,0.00,WUHU21623XXSP,2013-01-16 19:39:00,
2013-01-16 11:44:00,30.9,30.4,30.55,NE,45,0.0,0.0,98,0.00,,,0.00,WUHU21623XXSP,2013-01-16 19:44:00,
2013-01-16 11:49:00,31.1,30.6,30.54,NE,45,0.0,0.0,98,0.00,,,0.00,WUHU21623XXSP,2013-01-16 19:49:00,
2013-01-16 11:54:00,31.5,30.8,30.55,NE,45,0.0,0.0,98,0.00,,,0.00,WUHU21623XXSP,2013-01-16 19:54:00,
2013-01-16 11:59:00,31.6,31.1,30.55,NE,45,0.0,0.0,98,0.00,,,0.00,WUHU21623XXSP,2013-01-16 19:59:00,
2013-01-16 12:04:00,31.8,31.3,30.54,NE,45,0.0,0.0,98,0.00,,,0.00,WUHU21623XXSP,2013-01-16 20:04:00,
2013-01-16 12:09:00,32.2,31.7,30.54,NE,45,0.0,0.0,98,0.00,,,0.00,WUHU21623XXSP,2013-01-16 20:09:00,
2013-01-16 12:14:00,32.2,31.7,30.54,NE,45,0.0,0.0,98,0.00,,,0.00,WUHU21623XXSP,2013-01-16 20:14:00,
2013-01-16 12:19:00,32.4,31.8,30.54,NE,45,0.0,0.0,98,0.00,,,0.00,WUHU21623XXSP,2013-01-16 20:19:00,
2013-01-16 12:24:00,32.7,32.2,30.54,NE,45,0.0,0.0,98,0.00,,,0.00,WUHU21623XXSP,2013-01-16 20:24:00,
2013-01-16 12:29:00,32.7,32.2,30.54,NE,45,0.0,0.0,98,0.00,,,0.00,WUHU21623XXSP,2013-01-16 20:29:00,
2013-01-16 14:24:00,35.2,34.7,30.51,SE,135,0.0,0.0,98,0.00,,,0.00,WUHU21623XXSP,2013-01-16 22:24:00,
2013-01-16 14:29:00,35.4,34.9,30.51,SE,135,0.0,0.0,98,0.00,,,0.00,WUHU21623XXSP,2013-01-16 22:29:00,
2013-01-16 14:34:00,35.4,34.9,30.51,SE,135,0.0,0.0,98,0.00,,,0.00,WUHU21623XXSP,2013-01-16 22:34:00,
2013-01-16 14:39:00,35.4,34.9,30.51,SSE,157,0.0,0.0,98,0.00,,,0.00,WUHU21623XXSP,2013-01-16 22:39:00,
2013-01-16 14:44:00,35.4,34.9,30.51,SSE,157,0.0,0.0,98,0.00,,,0.00,WUHU21623XXSP,2013-01-16 22:44:00,
2013-01-16 14:49:00,35.4,34.9,30.51,South,180,0.0,0.0,98,0.00,,,0.00,WUHU21623XXSP,2013-01-16 22:49:00,
2013-01-16 14:54:00,35.6,35.1,30.51,South,180,0.0,0.0,98,0.00,,,0.00,WUHU21623XXSP,2013-01-16 22:54:00,
2013-01-16 14:59:00,35.4,34.6,30.51,South,180,0.0,0.0,97,0.00,,,0.00,WUHU21623XXSP,2013-01-16 22:59:00,
2013-01-16 15:04:00,35.4,34.6,30.51,South,180,0.0,0.0,97,0.00,,,0.00,WUHU21623XXSP,2013-01-16 23:04:00,
2013-01-16 15:09:00,35.4,34.6,30.51,South,180,0.0,0.0,97,0.00,,,0.00,WUHU21623XXSP,2013-01-16 23:09:00,
2013-01-16 15:14:00,35.4,34.6,30.51,South,180,0.0,0.0,97,0.00,,,0.00,WUHU21623XXSP,2013-01-16 23:14:00,
2013-01-16 15:19:00,35.4,34.6,30.51,South,180,0.0,0.0,97,0.00,,,0.00,WUHU21623XXSP,2013-01-16 23:19:00,
2013-01-16 15:24:00,35.4,34.6,30.51,South,180,0.0,0.0,97,0.00,,,0.00,WUHU21623XXSP,2013-01-16 23:24:00,
2013-01-16 15:29:00,35.2,34.4,30.51,South,180,0.0,0.0,97,0.00,,,0.00,WUHU21623XXSP,2013-01-16 23:29:00,
2013-01-16 15:34:00,35.2,34.4,30.51,South,180,0.0,0.0,97,0.00,,,0.00,WUHU21623XXSP,2013-01-16 23:34:00,
2013-01-16 15:39:00,34.9,34.3,30.51,South,180,0.0,0.0,97,0.00,,,0.00,WUHU21623XXSP,2013-01-16 23:39:00,
2013-01-16 15:44:00,34.9,34.1,30.51,South,180,0.0,0.0,97,0.00,,,0.00,WUHU21623XXSP,2013-01-16 23:44:00,
2013-01-16 15:49:00,34.9,34.1,30.51,South,180,0.0,0.0,97,0.00,,,0.00,WUHU21623XXSP,2013-01-16 23:49:00,
2013-01-16 15:54:00,34.9,34.1,30.50,South,180,0.0,0.0,97,0.00,,,0.00,WUHU21623XXSP,2013-01-16 23:54:00,
2013-01-16 15:59:00,34.7,33.9,30.50,South,180,0.0,0.0,97,0.00,,,0.00,WUHU21623XXSP,2013-01-16 23:59:00,
2013-01-16 16:04:00,34.7,33.9,30.50,South,180,0.0,0.0,97,0.00,,,0.00,WUHU21623XXSP,2013-01-17 00:04:00,
2013-01-16 16:09:00,34.7,33.9,30.51,South,180,0.0,0.0,97,0.00,,,0.00,WUHU21623XXSP,2013-01-17 00:09:00,
2013-01-16 16:14:00,34.3,33.5,30.50,South,180,0.0,0.0,97,0.00,,,0.00,WUHU21623XXSP,2013-01-17 00:14:00,
2013-01-16 16:19:00,34.3,33.5,30.50,South,180,0.0,0.0,97,0.00,,,0.00,WUHU21623XXSP,2013-01-17 00:19:00,
2013-01-16 16:24:00,34.2,33.4,30.50,South,180,0.0,0.0,97,0.00,,,0.00,WUHU21623XXSP,2013-01-17 00:24:00,
2013-01-16 16:29:00,34.0,33.2,30.49,South,180,0.0,0.0,97,0.00,,,0.00,WUHU21623XXSP,2013-01-17 00:29:00,
2013-01-16 16:34:00,33.8,33.0,30.49,South,180,0.0,0.0,97,0.00,,,0.00,WUHU21623XXSP,2013-01-17 00:34:00,
2013-01-16 16:39:00,33.6,32.8,30.49,South,180,0.0,0.0,97,0.00,,,0.00,WUHU21623XXSP,2013-01-17 00:39:00,
2013-01-16 16:44:00,33.4,32.6,30.49,South,180,0.0,0.0,97,0.00,,,0.00,WUHU21623XXSP,2013-01-17 00:44:00,
2013-01-16 16:49:00,33.3,32.5,30.49,South,180,0.0,0.0,97,0.00,,,0.00,WUHU21623XXSP,2013-01-17 00:49:00,
2013-01-16 16:54:00,33.1,32.3,30.49,South,180,0.0,0.0,97,0.00,,,0.00,WUHU21623XXSP,2013-01-17 00:54:00,
2013-01-16 16:59:00,32.9,32.3,30.49,South,180,0.0,0.0,97,0.00,,,0.00,WUHU21623XXSP,2013-01-17 00:59:00,
2013-01-16 17:04:00,32.7,32.1,30.49,South,180,0.0,0.0,97,0.00,,,0.00,WUHU21623XXSP,2013-01-17 01:04:00,
2013-01-16 17:09:00,32.7,31.9,30.50,South,180,0.0,0.0,97,0.00,,,0.00,WUHU21623XXSP,2013-01-17 01:09:00,
2013-01-16 17:14:00,32.7,31.9,30.50,South,180,0.0,0.0,97,0.00,,,0.00,WUHU21623XXSP,2013-01-17 01:14:00,
2013-01-16 17:19:00,32.7,31.9,30.50,South,180,0.0,0.0,97,0.00,,,0.00,WUHU21623XXSP,2013-01-17 01:19:00,
2013-01-16 17:24:00,32.4,31.8,30.50,South,180,0.0,0.0,97,0.00,,,0.00,WUHU21623XXSP,2013-01-17 01:24:00,
2013-01-16 17:29:00,32.2,31.4,30.50,South,180,0.0,0.0,97,0.00,,,0.00,WUHU21623XXSP,2013-01-17 01:29:00,
2013-01-16 17:34:00,32.2,31.4,30.49,South,180,0.0,0.0,97,0.00,,,0.00,WUHU21623XXSP,2013-01-17 01:34:00,
2013-01-16 17:39:00,31.8,31.2,30.49,South,180,0.0,0.0,97,0.00,,,0.00,WUHU21623XXSP,2013-01-17 01:39:00,
2013-01-16 17:44:00,31.8,31.1,30.49,South,180,0.0,0.0,97,0.00,,,0.00,WUHU21623XXSP,2013-01-17 01:44:00,
2013-01-16 17:49:00,31.8,31.1,30.49,South,180,0.0,0.0,97,0.00,,,0.00,WUHU21623XXSP,2013-01-17 01:49:00,
2013-01-16 17:54:00,31.6,30.9,30.49,South,180,0.0,0.0,97,0.00,,,0.00,WUHU21623XXSP,2013-01-17 01:54:00,
2013-01-16 17:59:00,31.6,30.9,30.49,South,180,0.0,0.0,97,0.00,,,0.00,WUHU21623XXSP,2013-01-17 01:59:00,
2013-01-16 18:04:00,31.6,30.9,30.49,South,180,0.0,0.0,97,0.00,,,0.00,WUHU21623XXSP,2013-01-17 02:04:00,
2013-01-16 18:09:00,31.6,30.9,30.49,South,180,0.0,0.0,97,0.00,,,0.00,WUHU21623XXSP,2013-01-17 02:09:00,
2013-01-16 18:14:00,31.5,30.7,30.49,South,180,0.0,0.0,97,0.00,,,0.00,WUHU21623XXSP,2013-01-17 02:14:00,
2013-01-16 18:19:00,31.3,30.5,30.49,South,180,0.0,0.0,97,0.00,,,0.00,WUHU21623XXSP,2013-01-17 02:19:00,
2013-01-16 18:24:00,31.3,30.5,30.49,South,180,0.0,0.0,97,0.00,,,0.00,WUHU21623XXSP,2013-01-17 02:24:00,
2013-01-16 18:29:00,31.3,30.5,30.49,South,180,0.0,0.0,97,0.00,,,0.00,WUHU21623XXSP,2013-01-17 02:29:00,
2013-01-16 18:34:00,31.3,30.5,30.49,South,180,0.0,0.0,97,0.00,,,0.00,WUHU21623XXSP,2013-01-17 02:34:00,
2013-01-16 18:39:00,31.3,30.5,30.49,South,180,0.0,0.0,97,0.00,,,0.00,WUHU21623XXSP,2013-01-17 02:39:00,
2013-01-16 18:44:00,31.1,30.5,30.49,South,180,0.0,0.0,97,0.00,,,0.00,WUHU21623XXSP,2013-01-17 02:44:00,
2013-01-16 18:50:00,31.1,30.3,30.49,South,180,0.0,0.0,97,0.00,,,0.00,WUHU21623XXSP,2013-01-17 02:50:00,
2013-01-16 18:55:00,31.1,30.6,30.49,South,180,0.0,0.0,98,0.00,,,0.00,WUHU21623XXSP,2013-01-17 02:55:00,
2013-01-16 19:00:00,31.1,30.6,30.49,South,180,0.0,0.0,98,0.00,,,0.00,WUHU21623XXSP,2013-01-17 03:00:00,
2013-01-16 19:05:00,30.9,30.4,30.49,South,180,0.0,0.0,98,0.00,,,0.00,WUHU21623XXSP,2013-01-17 03:05:00,
2013-01-16 19:10:00,30.9,30.4,30.49,South,180,0.0,0.0,98,0.00,,,0.00,WUHU21623XXSP,2013-01-17 03:10:00,
2013-01-16 19:15:00,30.9,30.4,30.49,South,180,0.0,0.0,98,0.00,,,0.00,WUHU21623XXSP,2013-01-17 03:15:00,
2013-01-16 19:20:00,30.9,30.4,30.49,South,180,0.0,0.0,98,0.00,,,0.00,WUHU21623XXSP,2013-01-17 03:20:00,
2013-01-16 19:25:00,30.7,30.2,30.49,South,180,0.0,0.0,98,0.00,,,0.00,WUHU21623XXSP,2013-01-17 03:25:00,
2013-01-16 19:30:00,30.7,30.2,30.49,South,180,0.0,0.0,98,0.00,,,0.00,WUHU21623XXSP,2013-01-17 03:30:00,
2013-01-16 19:35:00,30.7,30.2,30.49,South,180,0.0,0.0,98,0.00,,,0.00,WUHU21623XXSP,2013-01-17 03:35:00,
2013-01-16 19:40:00,30.7,30.2,30.48,South,180,0.0,0.0,98,0.00,,,0.00,WUHU21623XXSP,2013-01-17 03:40:00,
2013-01-16 19:45:00,30.6,30.1,30.48,South,180,0.0,0.0,98,0.00,,,0.00,WUHU21623XXSP,2013-01-17 03:45:00,
2013-01-16 19:50:00,30.6,30.1,30.48,South,180,0.0,0.0,98,0.00,,,0.00,WUHU21623XXSP,2013-01-17 03:50:00,
2013-01-16 19:55:00,30.4,29.9,30.48,South,180,0.0,0.0,98,0.00,,,0.00,WUHU21623XXSP,2013-01-17 03:55:00,
2013-01-16 20:00:00,30.4,29.9,30.48,South,180,0.0,0.0,98,0.00,,,0.00,WUHU21623XXSP,2013-01-17 04:00:00,
2013-01-16 20:05:00,30.4,29.9,30.48,South,180,0.0,0.0,98,0.00,,,0.00,WUHU21623XXSP,2013-01-17 04:05:00,
2013-01-16 20:10:00,30.2,29.7,30.48,South,180,0.0,0.0,98,0.00,,,0.00,WUHU21623XXSP,2013-01-17 04:10:00,
2013-01-16 20:15:00,30.2,29.7,30.47,South,180,0.0,0.0,98,0.00,,,0.00,WUHU21623XXSP,2013-01-17 04:15:00,
2013-01-16 20:20:00,30.2,29.7,30.48,South,180,0.0,0.0,98,0.00,,,0.00,WUHU21623XXSP,2013-01-17 04:20:00,
2013-01-16 20:25:00,30.0,29.5,30.48,South,180,0.0,0.0,98,0.00,,,0.00,WUHU21623XXSP,2013-01-17 04:25:00,
2013-01-16 20:30:00,30.0,29.5,30.48,South,180,0.0,0.0,98,0.00,,,0.00,WUHU21623XXSP,2013-01-17 04:30:00,
2013-01-16 20:35:00,30.0,29.5,30.48,South,180,0.0,0.0,98,0.00,,,0.00,WUHU21623XXSP,2013-01-17 04:35:00,
2013-01-16 20:40:00,30.0,29.5,30.48,South,180,0.0,0.0,98,0.00,,,0.00,WUHU21623XXSP,2013-01-17 04:40:00,
2013-01-16 20:45:00,29.8,29.5,30.48,South,180,0.0,0.0,98,0.00,,,0.00,WUHU21623XXSP,2013-01-17 04:45:00,
2013-01-16 20:50:00,29.8,29.3,30.47,South,180,0.0,0.0,98,0.00,,,0.00,WUHU21623XXSP,2013-01-17 04:50:00,
2013-01-16 20:55:00,29.8,29.3,30.47,South,180,0.0,0.0,98,0.00,,,0.00,WUHU21623XXSP,2013-01-17 04:55:00,
2013-01-16 21:01:00,29.8,29.3,30.47,South,180,0.0,0.0,98,0.00,,,0.00,WUHU21623XXSP,2013-01-17 05:01:00,
2013-01-16 21:02:00,29.8,29.3,30.47,South,180,0.0,0.0,98,0.00,,,0.00,WUHU21623XXSP,2013-01-17 05:02:00,
2013-01-16 21:03:00,29.8,29.3,30.47,South,180,0.0,0.0,98,0.00,,,0.00,WUHU21623XXSP,2013-01-17 05:03:00,
2013-01-16 21:08:00,29.8,29.3,30.46,South,180,0.0,0.0,98,0.00,,,0.00,WUHU21623XXSP,2013-01-17 05:08:00,
2013-01-16 21:13:00,29.8,29.3,30.46,South,180,0.0,0.0,98,0.00,,,0.00,WUHU21623XXSP,2013-01-17 05:13:00,
2013-01-16 21:18:00,29.8,29.3,30.47,South,180,0.0,0.0,98,0.00,,,0.00,WUHU21623XXSP,2013-01-17 05:18:00,
2013-01-16 21:23:00,29.8,29.3,30.47,South,180,0.0,0.0,98,0.00,,,0.00,WUHU21623XXSP,2013-01-17 05:23:00,
2013-01-16 21:28:00,29.8,29.3,30.47,South,180,0.0,0.0,98,0.00,,,0.00,WUHU21623XXSP,2013-01-17 05:28:00,
2013-01-16 21:33:00,29.8,29.3,30.47,South,180,0.0,0.0,98,0.00,,,0.00,WUHU21623XXSP,2013-01-17 05:33:00,
2013-01-16 21:38:00,29.8,29.3,30.47,South,180,0.0,0.0,98,0.00,,,0.00,WUHU21623XXSP,2013-01-17 05:38:00,
2013-01-16 21:43:00,29.8,29.3,30.47,South,180,0.0,0.0,98,0.00,,,0.00,WUHU21623XXSP,2013-01-17 05:43:00,
2013-01-16 21:48:00,29.7,29.2,30.47,South,180,0.0,0.0,98,0.00,,,0.00,WUHU21623XXSP,2013-01-17 05:48:00,
2013-01-16 21:53:00,29.5,29.0,30.46,South,180,0.0,0.0,98,0.00,,,0.00,WUHU21623XXSP,2013-01-17 05:53:00,
2013-01-16 21:58:00,29.5,28.7,30.46,South,180,0.0,0.0,97,0.00,,,0.00,WUHU21623XXSP,2013-01-17 05:58:00,
2013-01-16 22:03:00,29.3,28.5,30.46,South,180,0.0,0.0,97,0.00,,,0.00,WUHU21623XXSP,2013-01-17 06:03:00,
2013-01-16 22:08:00,29.3,28.5,30.46,South,180,0.0,0.0,97,0.00,,,0.00,WUHU21623XXSP,2013-01-17 06:08:00,
2013-01-16 22:13:00,29.3,28.5,30.46,South,180,0.0,0.0,97,0.00,,,0.00,WUHU21623XXSP,2013-01-17 06:13:00,
2013-01-16 22:18:00,29.3,28.5,30.46,South,180,0.0,0.0,97,0.00,,,0.00,WUHU21623XXSP,2013-01-17 06:18:00,
2013-01-16 22:23:00,29.1,28.4,30.47,South,180,0.0,0.0,97,0.00,,,0.00,WUHU21623XXSP,2013-01-17 06:23:00,
2013-01-16 22:28:00,29.1,28.4,30.47,South,180,0.0,0.0,97,0.00,,,0.00,WUHU21623XXSP,2013-01-17 06:28:00,
2013-01-16 22:33:00,29.1,28.4,30.46,South,180,0.0,0.0,97,0.00,,,0.00,WUHU21623XXSP,2013-01-17 06:33:00,
2013-01-16 22:38:00,29.1,28.4,30.46,South,180,0.0,0.0,97,0.00,,,0.00,WUHU21623XXSP,2013-01-17 06:38:00,
2013-01-16 22:43:00,29.1,28.4,30.46,South,180,0.0,0.0,97,0.00,,,0.00,WUHU21623XXSP,2013-01-17 06:43:00,
2013-01-16 22:48:00,29.1,28.4,30.46,South,180,0.0,0.0,97,0.00,,,0.00,WUHU21623XXSP,2013-01-17 06:48:00,
2013-01-16 22:53:00,28.9,28.2,30.46,South,180,0.0,0.0,97,0.00,,,0.00,WUHU21623XXSP,2013-01-17 06:53:00,
2013-01-16 22:58:00,28.9,28.2,30.46,South,180,0.0,0.0,97,0.00,,,0.00,WUHU21623XXSP,2013-01-17 06:58:00,
2013-01-16 23:03:00,28.8,28.0,30.46,South,180,0.0,0.0,97,0.00,,,0.00,WUHU21623XXSP,2013-01-17 07:03:00,
2013-01-16 23:08:00,28.8,28.0,30.46,South,180,0.0,0.0,97,0.00,,,0.00,WUHU21623XXSP,2013-01-17 07:08:00,
2013-01-16 23:13:00,28.8,28.0,30.46,South,180,0.0,0.0,97,0.00,,,0.00,WUHU21623XXSP,2013-01-17 07:13:00,
2013-01-16 23:18:00,28.8,28.0,30.46,South,180,0.0,0.0,97,0.00,,,0.00,WUHU21623XXSP,2013-01-17 07:18:00,
2013-01-16 23:23:00,28.8,28.0,30.46,South,180,0.0,0.0,97,0.00,,,0.00,WUHU21623XXSP,2013-01-17 07:23:00,
2013-01-16 23:28:00,28.8,28.0,30.46,South,180,0.0,0.0,97,0.00,,,0.00,WUHU21623XXSP,2013-01-17 07:28:00,
2013-01-16 23:33:00,28.8,28.0,30.46,South,180,0.0,0.0,97,0.00,,,0.00,WUHU21623XXSP,2013-01-17 07:33:00,
2013-01-16 23:38:00,28.8,28.0,30.46,South,180,0.0,0.0,97,0.00,,,0.00,WUHU21623XXSP,2013-01-17 07:38:00,
2013-01-16 23:43:00,28.6,27.8,30.46,South,180,0.0,0.0,97,0.00,,,0.00,WUHU21623XXSP,2013-01-17 07:43:00,
2013-01-16 23:48:00,28.6,27.8,30.46,South,180,0.0,0.0,97,0.00,,,0.00,WUHU21623XXSP,2013-01-17 07:48:00,
2013-01-16 23:53:00,28.6,27.8,30.46,South,180,0.0,0.0,97,0.00,,,0.00,WUHU21623XXSP,2013-01-17 07:53:00,
2013-01-16 23:58:00,28.6,27.8,30.46,South,180,0.0,0.0,97,0.00,,,0.00,WUHU21623XXSP,2013-01-17 07:58:00,